| time (UTC) | temp C | wind direction | speed KPH | gust KPH | rain 1hr cm | rain 24hr cm | rain mn cm | humidity % | barometer mb |
| 20260506111527 | 17 | 0 | 0.0 | 14.5 | 0.00 | 0.00 | 0.00 | 75 | 1009.2 |
| 20260506110032 | 17 | 0 | 0.0 | 11.3 | 0.00 | 0.00 | 0.00 | 76 | 1009.1 |
| 20260506104531 | 17 | 0 | 0.0 | 14.5 | 0.00 | 0.00 | 0.00 | 76 | 1009.0 |
| 20260506103030 | 17 | 0 | 0.0 | 17.7 | 0.00 | 0.00 | 0.00 | 77 | 1008.9 |
| 20260506101530 | 17 | 0 | 0.0 | 12.9 | 0.00 | 0.00 | 0.00 | 77 | 1008.9 |
| 20260506100027 | 17 | 0 | 1.6 | 16.1 | 0.00 | 0.00 | 0.00 | 76 | 1008.9 |
| 20260506094527 | 17 | 230 | 0.0 | 11.3 | 0.00 | 0.00 | 0.00 | 76 | 1008.8 |
| 20260506093028 | 18 | 0 | 0.0 | 9.7 | 0.00 | 0.00 | 0.00 | 75 | 1008.8 |
| 20260506091529 | 18 | 0 | 0.0 | 4.8 | 0.00 | 0.00 | 0.00 | 76 | 1008.9 |
| 20260506090030 | 18 | 0 | 0.0 | 12.9 | 0.00 | 0.00 | 0.00 | 75 | 1008.9 |
| 20260506084529 | 18 | 0 | 0.0 | 11.3 | 0.00 | 0.00 | 0.00 | 76 | 1009.0 |
| 20260506083028 | 18 | 0 | 0.0 | 9.7 | 0.00 | 0.00 | 0.00 | 76 | 1009.0 |
| 20260506081528 | 18 | 0 | 0.0 | 9.7 | 0.00 | 0.00 | 0.00 | 75 | 1009.0 |
| 20260506073030 | 18 | 0 | 0.0 | 9.7 | 0.00 | 0.00 | 0.00 | 74 | 1009.1 |
| 20260506071527 | 18 | 0 | 0.0 | 9.7 | 0.00 | 0.00 | 0.00 | 74 | 1009.1 |
| 20260506061530 | 19 | 0 | 0.0 | 11.3 | 0.00 | 0.00 | 0.00 | 70 | 1009.5 |
| 20260506044536 | 20 | 0 | 0.0 | 4.8 | 0.00 | 0.00 | 0.00 | 65 | 1010.3 |
| 20260506043028 | 20 | 0 | 0.0 | 9.7 | 0.00 | 0.00 | 0.00 | 64 | 1010.1 |
| 20260506041528 | 20 | 0 | 0.0 | 17.7 | 0.00 | 0.00 | 0.00 | 64 | 1010.0 |
| 20260506040030 | 20 | 0 | 0.0 | 3.2 | 0.00 | 0.00 | 0.00 | 63 | 1010.0 |
| 20260506034530 | 20 | 0 | 0.0 | 11.3 | 0.00 | 0.00 | 0.00 | 62 | 1009.9 |
| 20260506033034 | 20 | 0 | 0.0 | 16.1 | 0.00 | 0.00 | 0.00 | 62 | 1009.9 |
| 20260506031535 | 20 | 0 | 0.0 | 6.4 | 0.00 | 0.00 | 0.00 | 61 | 1009.9 |
| 20260506030051 | 20 | 0 | 1.6 | 8.0 | 0.00 | 0.00 | 0.00 | 60 | 1010.0 |
| 20260506024530 | 21 | 0 | 0.0 | 11.3 | 0.00 | 0.00 | 0.00 | 60 | 1010.0 |
| 20260506023030 | 21 | 0 | 0.0 | 4.8 | 0.00 | 0.00 | 0.00 | 59 | 1010.1 |
| 20260506021527 | 21 | 0 | 0.0 | 9.7 | 0.00 | 0.00 | 0.00 | 57 | 1010.1 |
| 20260506020027 | 22 | 232 | 1.6 | 16.1 | 0.00 | 0.00 | 0.00 | 55 | 1010.0 |
| 20260506014528 | 22 | 0 | 0.0 | 8.0 | 0.00 | 0.00 | 0.00 | 51 | 1010.0 |
| 20260506013031 | 22 | 0 | 0.0 | 14.5 | 0.00 | 0.00 | 0.00 | 49 | 1009.8 |
| 20260506011535 | 23 | 0 | 0.0 | 11.3 | 0.00 | 0.00 | 0.00 | 47 | 1009.7 |
| 20260506010026 | 23 | 0 | 0.0 | 9.7 | 0.00 | 0.00 | 0.00 | 45 | 1009.5 |
| 20260506004544 | 23 | 0 | 0.0 | 4.8 | 0.00 | 0.00 | 0.00 | 44 | 1009.4 |
| 20260506003036 | 23 | 276 | 0.0 | 9.7 | 0.00 | 0.00 | 0.00 | 45 | 1009.1 |
| 20260506001531 | 23 | 0 | 0.0 | 11.3 | 0.00 | 0.00 | 0.00 | 46 | 1009.0 |
| 20260506000028 | 24 | 271 | 0.0 | 12.9 | 0.00 | 0.00 | 0.00 | 45 | 1008.9 |
| 20260505234534 | 24 | 0 | 0.0 | 6.4 | 0.00 | 0.00 | 0.00 | 44 | 1008.8 |
| 20260505233030 | 25 | 0 | 0.0 | 12.9 | 0.00 | 0.00 | 0.00 | 43 | 1008.7 |
| 20260505231530 | 25 | 0 | 0.0 | 8.0 | 0.00 | 0.00 | 0.00 | 41 | 1008.7 |
| 20260505230041 | 26 | 109 | 1.6 | 12.9 | 0.00 | 0.00 | 0.00 | 40 | 1008.5 |
| 20260505224535 | 26 | 0 | 0.0 | 20.9 | 0.00 | 0.00 | 0.00 | 37 | 1008.3 |
| 20260505223030 | 26 | 0 | 0.0 | 12.9 | 0.00 | 0.00 | 0.00 | 35 | 1008.2 |
| 20260505221529 | 26 | 0 | 3.2 | 24.1 | 0.00 | 0.00 | 0.00 | 35 | 1008.2 |
| 20260505220032 | 26 | 254 | 6.4 | 27.4 | 0.00 | 0.00 | 0.00 | 34 | 1008.4 |
| 20260505214533 | 26 | 271 | 1.6 | 19.3 | 0.00 | 0.00 | 0.00 | 35 | 1008.1 |
| 20260505213030 | 27 | 0 | 8.0 | 22.5 | 0.00 | 0.00 | 0.00 | 33 | 1008.2 |
| 20260505211530 | 27 | 275 | 3.2 | 25.7 | 0.00 | 0.00 | 0.00 | 33 | 1008.2 |
| 20260505210028 | 27 | 289 | 3.2 | 22.5 | 0.00 | 0.00 | 0.00 | 32 | 1008.0 |
| 20260505204533 | 27 | 232 | 3.2 | 24.1 | 0.00 | 0.00 | 0.00 | 30 | 1008.0 |
| 20260505203034 | 27 | 261 | 8.0 | 20.9 | 0.00 | 0.00 | 0.00 | 30 | 1007.9 |
| 20260505201533 | 27 | 246 | 6.4 | 17.7 | 0.00 | 0.00 | 0.00 | 32 | 1008.0 |
| 20260505200032 | 27 | 284 | 8.0 | 25.7 | 0.00 | 0.00 | 0.00 | 32 | 1008.1 |
| 20260505194530 | 27 | 284 | 1.6 | 27.4 | 0.00 | 0.00 | 0.00 | 36 | 1008.3 |
| 20260505193030 | 27 | 302 | 1.6 | 16.1 | 0.00 | 0.00 | 0.00 | 37 | 1008.2 |
| 20260505191528 | 27 | 0 | 1.6 | 16.1 | 0.00 | 0.00 | 0.00 | 38 | 1008.4 |
| 20260505190037 | 27 | 251 | 1.6 | 27.4 | 0.00 | 0.00 | 0.00 | 38 | 1008.5 |
| 20260505184531 | 27 | 33 | 0.0 | 17.7 | 0.00 | 0.00 | 0.00 | 40 | 1008.7 |
| 20260505183030 | 27 | 0 | 3.2 | 17.7 | 0.00 | 0.00 | 0.00 | 40 | 1008.9 |
| 20260505181527 | 27 | 144 | 3.2 | 20.9 | 0.00 | 0.00 | 0.00 | 40 | 1009.2 |
| 20260505180036 | 27 | 284 | 3.2 | 27.4 | 0.00 | 0.00 | 0.00 | 41 | 1009.3 |
| 20260505174526 | 27 | 304 | 1.6 | 20.9 | 0.00 | 0.00 | 0.00 | 41 | 1009.3 |
| 20260505173030 | 27 | 0 | 1.6 | 20.9 | 0.00 | 0.00 | 0.00 | 43 | 1009.5 |
| 20260505171528 | 27 | 0 | 1.6 | 14.5 | 0.00 | 0.00 | 0.00 | 45 | 1009.4 |
| 20260505170033 | 27 | 0 | 1.6 | 11.3 | 0.00 | 0.00 | 0.00 | 43 | 1009.6 |
| 20260505164537 | 26 | 0 | 3.2 | 16.1 | 0.00 | 0.00 | 0.00 | 44 | 1009.5 |
| 20260505163032 | 26 | 284 | 4.8 | 16.1 | 0.00 | 0.00 | 0.00 | 43 | 1009.7 |
| 20260505161530 | 26 | 295 | 3.2 | 12.9 | 0.00 | 0.00 | 0.00 | 45 | 1009.7 |
| 20260505153037 | 24 | 288 | 1.6 | 16.1 | 0.00 | 0.00 | 0.00 | 48 | 1010.3 |
| 20260505151530 | 24 | 103 | 1.6 | 17.7 | 0.00 | 0.00 | 0.00 | 48 | 1010.4 |
| 20260505124530 | 18 | 311 | 4.8 | 14.5 | 0.00 | 0.00 | 0.00 | 64 | 1011.2 |
| 20260505123027 | 17 | 0 | 0.0 | 9.7 | 0.00 | 0.00 | 0.00 | 69 | 1011.1 |
| 20260505121532 | 14 | 0 | 0.0 | 3.2 | 0.00 | 0.00 | 0.00 | 80 | 1011.0 |
| 20260505120039 | 12 | 0 | 0.0 | 3.2 | 0.00 | 0.00 | 0.00 | 90 | 1011.1 |
| 20260505114530 | 11 | 0 | 0.0 | 0.0 | 0.00 | 0.00 | 0.00 | 91 | 1011.1 |
| 20260505113027 | 10 | 0 | 0.0 | 0.0 | 0.00 | 0.00 | 0.00 | 92 | 1011.0 |